Regional Weather Roundup
Issued by NWS

Home | Current Version | Previous Version | Text Only | Print | Product List | Glossary Off
Versions: 1 2 3 4 5 6 7 8 9 10 11 12 13 14 15 16 17 18 19 20 21 22 23 24 25 26 27 28 29 30 31 32 33 34 35 36 37 38 39 40 41 42 43 44 45 46 47 48 49 50

610
ASUS45 KBOI 241210
RWRID

IDAHO REGIONAL WEATHER ROUNDUP
NATIONAL WEATHER SERVICE BOISE ID
600 AM MDT SUN SEP 24 2017

NOTE: "FAIR" INDICATES FEW OR NO CLOUDS BELOW 12000 FEET
WITH NO SIGNIFICANT WEATHER AND/OR OBSTRUCTIONS TO VISIBILITY

IDZ012-014-241300-
SOUTHWEST IDAHO


CITY           SKY/WX    TMP DP  RH WIND       PRES   REMARKS
BOISE          CLEAR     38  33  82 CALM      30.03R
CALDWELL       CLEAR     40  34  79 W6        30.04S
MOUNTAIN HOME  CLEAR     38  34  88 NW6       30.02R WCI  33
$$

IDZ016-017-241300-
SOUTHCENTRAL IDAHO


CITY           SKY/WX    TMP DP  RH WIND       PRES   REMARKS
BURLEY         MOCLDY    40  33  76 W8        29.99F WCI  34
JEROME         CLEAR     37  34  89 S5        30.02R WCI  33
TWIN FALLS     CLEAR     38  32  79 SW13      30.02S WCI  30
$$

IDZ019>023-241300-
SOUTHEAST IDAHO


CITY           SKY/WX    TMP DP  RH WIND       PRES   REMARKS
IDAHO FALLS    CLOUDY    33  30  88 N5        29.99R WCI  29
POCATELLO      PTCLDY    37  33  85 W3        29.99S
REXBURG        CLEAR     35  29  78 CALM      29.97S
$$

IDZ006-010-011-018-031-032-241300-
CENTRAL IDAHO MOUNTAINS


CITY           SKY/WX    TMP DP  RH WIND       PRES   REMARKS
MCCALL         CLEAR     28  26  92 CALM      30.05S
HAILEY         CLEAR     32  28  86 NW10      30.04S WCI  24
STANLEY          N/A     26  24  92 CALM      30.09R
SALMON         CLEAR     29  26  89 CALM      30.12S
CHALLIS        CLOUDY    31  27  85 CALM      30.07F
$$

IDZ002-004-006-007-026-241300-
NORTHERN IDAHO


CITY           SKY/WX    TMP DP  RH WIND       PRES   REMARKS
LEWISTON       CLOUDY    49  42  77 E7        30.12S
LOWELL           N/A     39  37  92 CALM      30.19F
COEUR D`ALENE  CLOUDY    50  45  83 CALM      30.11R
MULLAN PASS    CLOUDY    36  33  89 NW5       30.11S WCI  32
$$




USA.gov is the U.S. government's official web portal to all federal, state and local government web resources and services.